timestamp,wave_ht_sig,wave_ht_max,wave_period_avg,timestamp_internal,wave_ht_sig_Hm0,wave_period,wave_period_peak,wave_direction_peak_spectral,wave_spread_peak,sea_surface_temp_avg,peak_power_spectral_density
2023-09-21T00:00:00Z,2.0,3.2,8.7,2023-09-20T23:30:00Z,2.2,6.3,7.7,204,35,16.3,3.865895
2023-09-21T00:30:00Z,2.1,3.3,8.4,2023-09-21T00:00:00Z,2.1,6.6,10.0,213,20,16.4,4.988789
2023-09-21T01:00:00Z,2.0,3.4,8.5,2023-09-21T00:30:00Z,2.3,6.7,7.7,213,38,16.6,4.55941
2023-09-21T01:30:00Z,2.0,3.2,8.5,2023-09-21T01:00:00Z,2.1,6.6,13.3,163,26,16.7,3.770446
2023-09-21T02:00:00Z,2.1,3.4,9.3,2023-09-21T01:30:00Z,2.1,6.8,10.0,216,29,16.7,3.498006
2023-09-21T02:30:00Z,2.0,3.0,9.2,2023-09-21T02:00:00Z,2.2,6.8,10.5,223,25,16.6,5.404291
2023-09-21T03:00:00Z,2.0,3.6,9.0,2023-09-21T02:30:00Z,2.1,6.8,10.0,216,32,16.6,4.166987
2023-09-21T03:30:00Z,1.9,3.3,9.2,2023-09-21T03:00:00Z,2.2,6.9,10.0,219,21,16.5,4.988789
2023-09-21T04:00:00Z,2.0,3.2,9.4,2023-09-21T03:30:00Z,2.1,6.9,12.5,170,30,16.6,4.817202
2023-09-21T04:30:00Z,1.9,2.9,9.7,2023-09-21T04:00:00Z,2.2,7.1,11.8,166,24,16.8,4.514043
2023-09-21T05:00:00Z,1.9,2.9,9.1,2023-09-21T04:30:00Z,2.0,7.0,12.5,174,18,16.8,4.104949
2023-09-21T05:30:00Z,1.8,2.7,9.2,2023-09-21T05:00:00Z,2.1,7.0,10.0,212,21,16.8,4.651516
2023-09-21T06:00:00Z,2.0,3.3,9.6,2023-09-21T05:30:00Z,1.9,6.8,11.8,174,31,16.8,3.229067
2023-09-21T06:30:00Z,2.0,3.2,9.6,2023-09-21T06:00:00Z,2.1,7.1,14.3,163,29,16.8,6.002603
2023-09-21T07:00:00Z,2.0,3.4,9.5,2023-09-21T06:30:00Z,2.1,7.1,12.5,168,23,16.8,4.745483
2023-09-21T07:30:00Z,2.1,3.3,10.1,2023-09-21T07:00:00Z,2.1,7.1,14.3,164,26,16.7,4.698265
2023-09-21T08:00:00Z,1.9,3.3,10.0,2023-09-21T07:30:00Z,2.2,7.4,14.3,157,30,16.7,5.14072
2023-09-21T08:30:00Z,2.0,3.9,9.9,2023-09-21T08:00:00Z,2.0,7.1,13.3,159,32,16.7,5.738473
2023-09-21T09:00:00Z,1.9,3.5,9.6,2023-09-21T08:30:00Z,2.2,7.4,13.3,163,24,16.7,9.461143
2023-09-21T09:30:00Z,1.9,3.0,9.9,2023-09-21T09:00:00Z,2.0,7.0,12.5,167,31,16.7,4.721815
2023-09-21T10:00:00Z,2.0,3.5,8.8,2023-09-21T09:30:00Z,2.1,7.1,13.3,166,26,16.7,6.247574
2023-09-21T10:30:00Z,2.0,3.2,9.7,2023-09-21T10:00:00Z,2.2,6.9,12.5,164,34,16.7,5.14072
2023-09-21T11:00:00Z,2.0,3.3,10.6,2023-09-21T10:30:00Z,2.1,6.8,12.5,163,25,16.7,5.192385
2023-09-21T11:30:00Z,2.0,3.5,9.9,2023-09-21T11:00:00Z,2.1,7.3,13.3,167,30,16.7,6.97403
2023-09-21T12:00:00Z,2.2,3.4,11.2,2023-09-21T11:30:00Z,2.2,7.1,12.5,161,29,16.6,7.707495
2023-09-21T12:30:00Z,2.1,3.1,11.6,2023-09-21T12:00:00Z,2.3,7.4,13.3,167,22,16.6,10.937455
2023-09-21T13:00:00Z,2.0,2.8,10.8,2023-09-21T12:30:00Z,2.3,7.7,14.3,173,26,16.6,7.40528
2023-09-21T13:30:00Z,1.9,3.5,10.6,2023-09-21T13:00:00Z,2.2,7.4,13.3,166,36,16.6,7.784956
2023-09-21T14:00:00Z,2.1,3.8,11.3,2023-09-21T13:30:00Z,2.1,7.3,12.5,174,23,16.6,6.904637
2023-09-21T14:30:00Z,2.3,3.7,12.0,2023-09-21T14:00:00Z,2.2,7.7,13.3,161,25,16.7,10.249134
2023-09-21T15:00:00Z,2.5,3.6,13.0,2023-09-21T14:30:00Z,2.5,8.5,15.4,166,26,16.7,14.617116
2023-09-21T15:30:00Z,2.7,4.9,13.5,2023-09-21T15:00:00Z,2.7,8.9,15.4,163,27,16.7,18.581997
2023-09-21T16:00:00Z,2.7,3.5,13.3,2023-09-21T15:30:00Z,2.9,9.5,15.4,170,27,17.0,19.340342
2023-09-21T16:30:00Z,2.8,4.8,13.4,2023-09-21T16:00:00Z,2.9,9.3,15.4,164,26,17.0,29.288448
2023-09-21T17:00:00Z,3.0,4.9,13.3,2023-09-21T16:30:00Z,3.0,9.5,15.4,174,29,16.9,26.106731
2023-09-21T17:30:00Z,2.6,4.3,12.3,2023-09-21T17:00:00Z,3.3,9.8,15.4,167,24,16.9,37.047215
2023-09-21T18:00:00Z,2.4,4.6,11.8,2023-09-21T17:30:00Z,2.7,8.7,15.4,160,27,16.9,17.325739
2023-09-21T18:30:00Z,2.6,4.1,11.8,2023-09-21T18:00:00Z,2.6,8.3,14.3,173,30,16.9,17.764341
2023-09-21T19:00:00Z,2.6,4.6,12.6,2023-09-21T18:30:00Z,2.7,8.7,14.3,163,33,16.9,14.544213
2023-09-21T19:30:00Z,2.1,2.9,10.8,2023-09-21T19:00:00Z,2.8,8.9,14.3,168,24,16.9,20.433857
2023-09-21T20:00:00Z,2.5,3.9,12.6,2023-09-21T19:30:00Z,2.3,7.5,14.3,167,29,16.8,11.672005
2023-09-21T20:30:00Z,2.1,3.5,10.9,2023-09-21T20:00:00Z,2.7,8.3,14.3,171,21,16.8,25.718054
2023-09-21T21:00:00Z,2.2,3.4,11.1,2023-09-21T20:30:00Z,2.3,7.4,14.3,160,26,16.8,11.498231
2023-09-21T21:30:00Z,2.1,3.3,10.4,2023-09-21T21:00:00Z,2.4,7.1,13.3,159,24,16.7,11.102754
2023-09-21T22:00:00Z,2.1,2.9,10.4,2023-09-21T21:30:00Z,2.3,6.9,14.3,178,32,16.6,11.102754
2023-09-21T22:30:00Z,1.9,3.4,9.5,2023-09-21T22:00:00Z,2.3,6.8,14.3,161,35,16.6,9.700653
2023-09-21T23:00:00Z,2.0,3.3,9.9,2023-09-21T22:30:00Z,2.1,6.5,14.3,167,34,16.6,6.904637
2023-09-21T23:30:00Z,2.0,3.1,9.9,2023-09-21T23:00:00Z,2.2,6.6,14.3,163,34,16.6,7.405280
